sat.trackr.live / text

‹ back to catalog

STARLINK-35570

NORAD 66090 · 2025-236E

PAYLOAD ACTIVE UNKNOWN

§ Identity

Operator
Country
US
Launch date
2025-10-19
Launch site
AFWTR
Launch vehicle
Mass (kg)
RCS (m²)

Purposes: comms

External: N2YO · Heavens-Above · Gunter

§ Orbital elements

Epoch: 2026-09-20T12:20:51.704448Z

Period
93.85 min
Inclination
53.1592°
Eccentricity
0.0001529
Mean motion
15.34413942 rev/d
Perigee alt
461.6 km
Apogee alt
463.7 km
Semi-major
6,840.8 km
B*
4.9139e-4
RAAN
277.4785°
Arg perigee
100.0522°
Mean anomaly
260.0654°
Rev number
5,279

§ Raw data

STARLINK-355701 66090U 25236E   26263.51448732  .00016270  00000+0  49139-3 0  99962 66090  53.1592 277.4785 0001529 100.0522 260.0654 15.34413942 52797

JSON: /api/v1/satellites/66090 · /tle

For live sub-satellite position, see the globe view (requires WebGL).

§ Visibility from observer

Set your observer location to see the next 7 days of passes ≥ 10°. The values pass through the URL so the page stays shareable.

No JS? Fill the form by hand. The geolocation button needs JavaScript.